QPF
0.00 0.00 0.00 0.00 0.00 0.00 0.00 0.00 0.00 0.00 0.01 0.01 0.01 0.01 0.01 0.01 0.01 0.01 0.00 0.01 0.01 0.01 0.02 0.02 0.02 0.02 0.01 0.00 0.00 0.00 0.00 0.00 0.00 0.00 0.00 0.00 0.00 0.01 0.01 0.01 0.01 0.01 0.01
0.00 0.00 0.00 0.00 0.00 0.00 0.00 0.00 0.00 0.00 0.00 0.01 0.01 0.01 0.01 0.01 0.01 0.01 0.01 0.01 0.01 0.02 0.03 0.02 0.01 0.00 0.00 0.00 0.00 0.00 0.00 0.00 0.00 0.00 0.00 0.00 0.00 0.00 0.00 0.00 0.00 0.01 0.01
0.00 0.00 0.00 0.00 0.00 0.00 0.00 0.00 0.00 0.00 0.01 0.01 0.01 0.01 0.01 0.01 0.00 0.01 0.01 0.01 0.01 0.02 0.03 0.01 0.00 0.00 0.00 0.00 0.00 0.00 0.00 0.00 0.00 0.00 0.00 0.00 0.00 0.01 0.01 0.01 0.01 0.01 0.01
0.00 0.00 0.00 0.00 0.00 0.00 0.00 0.00 0.00 0.00 0.00 0.01 0.01 0.01 0.00 0.00 0.00 0.01 0.01 0.01 0.01 0.02 0.02 0.00 0.00 0.00 0.00 0.00 0.00 0.00 0.00 0.00 0.00 0.00 0.00 0.00 0.01 0.03 0.03 0.02 0.02 0.01 0.01
0.00 0.00 0.00 0.00 0.00 0.00 0.00 0.00 0.00 0.00 0.00 0.00 0.00 0.00 0.00 0.00 0.01 0.01 0.01 0.01 0.01 0.01 0.01 0.00 0.00 0.00 0.00 0.00 0.00 0.00 0.00 0.00 0.00 0.00 0.00 0.00 0.01 0.03 0.02 0.02 0.02 0.02 0.02
0.00 0.00 0.00 0.00 0.00 0.00 0.00 0.00 0.00 0.00 0.00 0.00 0.00 0.00 0.00 0.00 0.01 0.01 0.01 0.00 0.00 0.00 0.00 0.00 0.00 0.00 0.00 0.00 0.00 0.00 0.00 0.00 0.00 0.00 0.00 0.00 0.01 0.02 0.02 0.01 0.02 0.02 0.02
0.00 0.00 0.01 0.00 0.00 0.00 0.00 0.00 0.00 0.00 0.00 0.00 0.00 0.00 0.00 0.00 0.00 0.00 0.00 0.00 0.00 0.00 0.00 0.00 0.00 0.00 0.00 0.00 0.00 0.00 0.00 0.00 0.00 0.00 0.00 0.00 0.01 0.02 0.01 0.01 0.01 0.01 0.01
0.00 0.00 0.01 0.01 0.00 0.00 0.00 0.00 0.00 0.00 0.00 0.00 0.00 0.00 0.00 0.00 0.00 0.00 0.00 0.00 0.00 0.00 0.00 0.00 0.00 0.00 0.00 0.00 0.00 0.00 0.00 0.00 0.00 0.00 0.00 0.00 0.01 0.01 0.01 0.01 0.01 0.01 0.00
0.00 0.00 0.01 0.01 0.01 0.01 0.01 0.00 0.00 0.00 0.00 0.00 0.00 0.00 0.00 0.00 0.00 0.00 0.00 0.00 0.00 0.00 0.00 0.00 0.00 0.00 0.00 0.00 0.00 0.00 0.00 0.00 0.00 0.00 0.00 0.00 0.00 0.01 0.00 0.00 0.00 0.00 0.00
0.00 0.00 0.00 0.01 0.01 0.01 0.01 0.01 0.00 0.00 0.00 0.00 0.00 0.00 0.00 0.00 0.00 0.00 0.00 0.00 0.00 0.00 0.00 0.00 0.00 0.00 0.00 0.00 0.00 0.00 0.00 0.00 0.00 0.00 0.00 0.00 0.00 0.00 0.00 0.00 0.00 0.00 0.00
0.01 0.00 0.00 0.01 0.01 0.01 0.00 0.00 0.00 0.00 0.00 0.00 0.00 0.00 0.00 0.00 0.00 0.00 0.00 0.00 0.00 0.00 0.00 0.00 0.00 0.00 0.00 0.00 0.00 0.00 0.00 0.00 0.00 0.00 0.00 0.00 0.00 0.00 0.00 0.00 0.00 0.00 0.00
0.01 0.00 0.00 0.00 0.00 0.00 0.00 0.00 0.00 0.00 0.00 0.00 0.00 0.00 0.00 0.00 0.00 0.00 0.00 0.00 0.00 0.00 0.00 0.00 0.00 0.00 0.00 0.00 0.00 0.00 0.00 0.00 0.00 0.00 0.00 0.00 0.00 0.00 0.00 0.00 0.00 0.00 0.00
0.01 0.00 0.00 0.00 0.00 0.00 0.00 0.00 0.00 0.00 0.00 0.00 0.00 0.00 0.00 0.00 0.00 0.00 0.00 0.00 0.00 0.00 0.00 0.00 0.00 0.00 0.00 0.00 0.00 0.00 0.00 0.00 0.00 0.00 0.00 0.00 0.00 0.00 0.00 0.00 0.00 0.00 0.00
0.01 0.00 0.00 0.00 0.00 0.00 0.00 0.00 0.00 0.00 0.00 0.00 0.00 0.00 0.00 0.00 0.00 0.00 0.00 0.00 0.00 0.00 0.00 0.00 0.00 0.00 0.00 0.00 0.00 0.00 0.00 0.00 0.00 0.00 0.00 0.00 0.00 0.00 0.00 0.00 0.00 0.00 0.00
0.01 0.00 0.00 0.00 0.00 0.00 0.00 0.00 0.00 0.00 0.00 0.00 0.00 0.00 0.00 0.00 0.00 0.00 0.00 0.00 0.00 0.00 0.00 0.00 0.00 0.00 0.00 0.00 0.00 0.00 0.00 0.00 0.00 0.00 0.00 0.00 0.00 0.00 0.00 0.00 0.00 0.00 0.00
0.01 0.00 0.00 0.00 0.00 0.00 0.00 0.00 0.00 0.00 0.00 0.00 0.00 0.00 0.00 0.00 0.00 0.00 0.00 0.00 0.00 0.00 0.00 0.00 0.00 0.00 0.00 0.00 0.00 0.00 0.00 0.00 0.00 0.00 0.00 0.00 0.00 0.00 0.00 0.00 0.00 0.00 0.00
0.01 0.00 0.00 0.00 0.00 0.00 0.00 0.00 0.00 0.00 0.00 0.00 0.00 0.00 0.00 0.00 0.00 0.00 0.00 0.00 0.00 0.00 0.00 0.00 0.00 0.00 0.00 0.00 0.00 0.00 0.00 0.00 0.00 0.00 0.00 0.00 0.00 0.00 0.00 0.00 0.00 0.00 0.00
0.01 0.01 0.01 0.00 0.00 0.00 0.00 0.00 0.00 0.00 0.00 0.00 0.00 0.00 0.00 0.00 0.00 0.00 0.00 0.00 0.00 0.00 0.00 0.00 0.00 0.00 0.00 0.00 0.00 0.00 0.00 0.00 0.00 0.00 0.00 0.00 0.00 0.00 0.00 0.00 0.00 0.00 0.00
0.01 0.01 0.01 0.00 0.00 0.00 0.00 0.00 0.00 0.00 0.00 0.00 0.00 0.00 0.00 0.00 0.00 0.00 0.00 0.00 0.00 0.00 0.00 0.00 0.00 0.00 0.00 0.00 0.00 0.00 0.00 0.00 0.00 0.00 0.00 0.00 0.00 0.00 0.00 0.00 0.00 0.00 0.00
0.00 0.01 0.01 0.01 0.01 0.01 0.00 0.00 0.00 0.00 0.00 0.00 0.00 0.00 0.00 0.00 0.00 0.00 0.00 0.00 0.00 0.00 0.00 0.00 0.00 0.00 0.00 0.00 0.00 0.00 0.00 0.00 0.00 0.00 0.00 0.00 0.00 0.00 0.00 0.00 0.00 0.00 0.00
0.00 0.00 0.00 0.00 0.01 0.01 0.01 0.01 0.01 0.00 0.00 0.00 0.01 0.00 0.00 0.00 0.01 0.01 0.00 0.01 0.01 0.01 0.01 0.01 0.01 0.01 0.01 0.00 0.00 0.00 0.00 0.00 0.00 0.00 0.00 0.00 0.00 0.00 0.00 0.00 0.00 0.00 0.00
0.00 0.00 0.00 0.00 0.00 0.01 0.01 0.01 0.01 0.01 0.01 0.01 0.01 0.00 0.01 0.01 0.01 0.01 0.01 0.01 0.01 0.02 0.02 0.02 0.02 0.02 0.01 0.02 0.01 0.01 0.01 0.00 0.00 0.00 0.00 0.00 0.00 0.00 0.00 0.00 0.00 0.00 0.00
0.00 0.00 0.00 0.00 0.00 0.00 0.01 0.01 0.01 0.01 0.01 0.01 0.01 0.01 0.02 0.02 0.02 0.01 0.01 0.02 0.02 0.02 0.02 0.02 0.03 0.04 0.04 0.04 0.04 0.03 0.02 0.01 0.01 0.00 0.01 0.01 0.01 0.01 0.00 0.00 0.01 0.01 0.01
0.00 0.00 0.00 0.00 0.00 0.00 0.01 0.01 0.01 0.01 0.01 0.01 0.01 0.01 0.01 0.01 0.01 0.01 0.01 0.02 0.02 0.02 0.02 0.03 0.05 0.06 0.07 0.06 0.06 0.05 0.04 0.03 0.02 0.01 0.01 0.01 0.02 0.02 0.02 0.02 0.02 0.02 0.01
0.00 0.00 0.00 0.00 0.00 0.00 0.00 0.01 0.01 0.00 0.01 0.01 0.01 0.00 0.01 0.01 0.01 0.01 0.01 0.01 0.01 0.01 0.02 0.04 0.06 0.07 0.08 0.08 0.08 0.08 0.08 0.06 0.04 0.04 0.03 0.02 0.03 0.04 0.04 0.04 0.03 0.03 0.03
0.00 0.00 0.00 0.00 0.00 0.00 0.00 0.00 0.01 0.01 0.01 0.01 0.01 0.01 0.01 0.01 0.01 0.01 0.01 0.01 0.02 0.02 0.03 0.04 0.06 0.08 0.10 0.10 0.11 0.10 0.10 0.10 0.09 0.09 0.09 0.06 0.06 0.07 0.07 0.07 0.08 0.08 0.08
MSLP
1014.87 1014.69 1014.65 1014.79 1015.10 1015.53 1015.99 1016.42 1016.77 1017.01 1017.16 1017.27 1017.37 1017.53 1017.74 1018.01 1018.29 1018.55 1018.75 1018.86 1018.91 1018.90 1018.88 1018.88 1018.94 1019.05 1019.19 1019.35 1019.49 1019.59 1019.65 1019.65 1019.64 1019.62 1019.62 1019.64 1019.66 1019.69 1019.69 1019.67 1019.61 1019.53 1019.44
1014.62 1014.49 1014.52 1014.73 1015.10 1015.58 1016.09 1016.56 1016.93 1017.19 1017.35 1017.46 1017.58 1017.75 1017.98 1018.26 1018.56 1018.83 1019.04 1019.17 1019.24 1019.25 1019.26 1019.29 1019.37 1019.49 1019.64 1019.79 1019.90 1019.96 1019.97 1019.94 1019.90 1019.87 1019.86 1019.89 1019.93 1019.97 1019.98 1019.97 1019.91 1019.83 1019.73
1014.33 1014.27 1014.36 1014.64 1015.08 1015.62 1016.18 1016.69 1017.09 1017.37 1017.55 1017.67 1017.80 1017.97 1018.20 1018.48 1018.77 1019.04 1019.25 1019.38 1019.46 1019.50 1019.53 1019.59 1019.69 1019.82 1019.97 1020.11 1020.20 1020.24 1020.23 1020.19 1020.14 1020.11 1020.11 1020.14 1020.20 1020.25 1020.28 1020.27 1020.22 1020.14 1020.04
1014.06 1014.06 1014.22 1014.57 1015.07 1015.66 1016.27 1016.81 1017.24 1017.54 1017.73 1017.87 1017.99 1018.16 1018.37 1018.63 1018.90 1019.15 1019.35 1019.49 1019.57 1019.63 1019.69 1019.77 1019.89 1020.04 1020.19 1020.32 1020.41 1020.45 1020.43 1020.39 1020.35 1020.34 1020.36 1020.41 1020.48 1020.54 1020.58 1020.57 1020.53 1020.45 1020.35
1013.88 1013.95 1014.17 1014.56 1015.10 1015.73 1016.36 1016.92 1017.36 1017.67 1017.87 1018.01 1018.13 1018.28 1018.48 1018.71 1018.95 1019.18 1019.37 1019.50 1019.60 1019.68 1019.76 1019.87 1020.01 1020.17 1020.33 1020.47 1020.56 1020.60 1020.60 1020.58 1020.56 1020.57 1020.61 1020.68 1020.76 1020.82 1020.86 1020.86 1020.81 1020.74 1020.66
1013.86 1013.98 1014.24 1014.67 1015.22 1015.85 1016.48 1017.03 1017.46 1017.77 1017.97 1018.10 1018.21 1018.35 1018.53 1018.74 1018.96 1019.17 1019.35 1019.49 1019.61 1019.71 1019.81 1019.95 1020.11 1020.28 1020.45 1020.59 1020.69 1020.74 1020.76 1020.76 1020.77 1020.81 1020.87 1020.95 1021.03 1021.10 1021.13 1021.13 1021.08 1021.02 1020.96
1014.02 1014.18 1014.47 1014.89 1015.44 1016.03 1016.62 1017.14 1017.54 1017.83 1018.02 1018.15 1018.26 1018.40 1018.57 1018.76 1018.98 1019.18 1019.37 1019.52 1019.66 1019.78 1019.92 1020.07 1020.24 1020.42 1020.59 1020.73 1020.83 1020.89 1020.93 1020.96 1020.99 1021.05 1021.13 1021.22 1021.30 1021.36 1021.39 1021.37 1021.34 1021.29 1021.24
1014.33 1014.52 1014.81 1015.23 1015.73 1016.27 1016.80 1017.26 1017.62 1017.89 1018.06 1018.20 1018.32 1018.46 1018.64 1018.84 1019.05 1019.27 1019.46 1019.64 1019.79 1019.95 1020.10 1020.27 1020.45 1020.63 1020.78 1020.91 1021.01 1021.07 1021.12 1021.16 1021.21 1021.29 1021.38 1021.48 1021.56 1021.61 1021.63 1021.62 1021.58 1021.54 1021.52
1014.73 1014.94 1015.23 1015.61 1016.05 1016.53 1016.99 1017.38 1017.71 1017.95 1018.13 1018.28 1018.42 1018.59 1018.78 1019.00 1019.23 1019.45 1019.66 1019.85 1020.03 1020.20 1020.38 1020.55 1020.73 1020.89 1021.03 1021.14 1021.21 1021.27 1021.31 1021.36 1021.42 1021.51 1021.61 1021.71 1021.79 1021.84 1021.86 1021.85 1021.83 1021.81 1021.80
1015.13 1015.35 1015.63 1015.97 1016.37 1016.77 1017.16 1017.51 1017.80 1018.03 1018.22 1018.40 1018.58 1018.78 1019.01 1019.25 1019.49 1019.72 1019.94 1020.14 1020.33 1020.52 1020.69 1020.87 1021.03 1021.17 1021.29 1021.37 1021.42 1021.46 1021.49 1021.53 1021.60 1021.69 1021.79 1021.90 1021.99 1022.05 1022.08 1022.09 1022.08 1022.08 1022.09
1015.44 1015.68 1015.95 1016.26 1016.60 1016.95 1017.29 1017.60 1017.88 1018.12 1018.34 1018.56 1018.79 1019.03 1019.28 1019.54 1019.79 1020.03 1020.24 1020.44 1020.63 1020.81 1020.99 1021.15 1021.30 1021.42 1021.51 1021.57 1021.59 1021.61 1021.62 1021.65 1021.71 1021.81 1021.92 1022.03 1022.14 1022.22 1022.28 1022.31 1022.33 1022.34 1022.38
1015.61 1015.86 1016.13 1016.42 1016.72 1017.04 1017.34 1017.64 1017.92 1018.19 1018.45 1018.72 1019.00 1019.28 1019.55 1019.82 1020.07 1020.30 1020.50 1020.68 1020.86 1021.03 1021.19 1021.34 1021.48 1021.58 1021.65 1021.68 1021.69 1021.68 1021.69 1021.71 1021.77 1021.85 1021.97 1022.10 1022.23 1022.34 1022.42 1022.49 1022.54 1022.59 1022.65
1015.61 1015.87 1016.14 1016.42 1016.71 1017.00 1017.29 1017.59 1017.89 1018.20 1018.51 1018.83 1019.15 1019.46 1019.75 1020.02 1020.25 1020.46 1020.64 1020.80 1020.96 1021.11 1021.26 1021.40 1021.52 1021.62 1021.68 1021.70 1021.70 1021.69 1021.68 1021.70 1021.75 1021.84 1021.96 1022.10 1022.25 1022.38 1022.51 1022.62 1022.71 1022.80 1022.88
1015.48 1015.74 1016.01 1016.28 1016.55 1016.84 1017.13 1017.45 1017.77 1018.12 1018.48 1018.84 1019.19 1019.52 1019.81 1020.07 1020.29 1020.47 1020.62 1020.76 1020.89 1021.03 1021.18 1021.32 1021.44 1021.54 1021.60 1021.64 1021.64 1021.63 1021.63 1021.64 1021.69 1021.77 1021.89 1022.04 1022.20 1022.36 1022.52 1022.67 1022.80 1022.93 1023.04
1015.25 1015.51 1015.77 1016.03 1016.29 1016.57 1016.88 1017.21 1017.57 1017.94 1018.33 1018.72 1019.08 1019.42 1019.71 1019.95 1020.15 1020.31 1020.44 1020.57 1020.69 1020.83 1020.97 1021.12 1021.26 1021.38 1021.46 1021.51 1021.54 1021.55 1021.55 1021.57 1021.61 1021.68 1021.79 1021.93 1022.09 1022.26 1022.44 1022.62 1022.79 1022.95 1023.09
1014.99 1015.23 1015.47 1015.71 1015.97 1016.25 1016.56 1016.91 1017.28 1017.67 1018.08 1018.47 1018.83 1019.16 1019.44 1019.66 1019.85 1019.99 1020.12 1020.25 1020.38 1020.53 1020.70 1020.87 1021.03 1021.17 1021.29 1021.38 1021.43 1021.46 1021.48 1021.50 1021.54 1021.59 1021.68 1021.80 1021.94 1022.10 1022.28 1022.48 1022.67 1022.86 1023.03
1014.75 1014.96 1015.16 1015.39 1015.63 1015.91 1016.23 1016.58 1016.96 1017.35 1017.75 1018.12 1018.47 1018.77 1019.03 1019.24 1019.42 1019.57 1019.71 1019.86 1020.02 1020.20 1020.40 1020.60 1020.79 1020.97 1021.13 1021.25 1021.34 1021.40 1021.43 1021.46 1021.49 1021.52 1021.58 1021.66 1021.76 1021.90 1022.06 1022.25 1022.44 1022.65 1022.84
1014.56 1014.72 1014.89 1015.09 1015.32 1015.59 1015.91 1016.26 1016.63 1017.01 1017.38 1017.73 1018.04 1018.31 1018.54 1018.74 1018.92 1019.09 1019.26 1019.45 1019.65 1019.87 1020.10 1020.34 1020.57 1020.79 1020.97 1021.13 1021.25 1021.34 1021.40 1021.43 1021.45 1021.46 1021.48 1021.52 1021.58 1021.67 1021.80 1021.95 1022.14 1022.34 1022.55
1014.42 1014.53 1014.66 1014.83 1015.05 1015.32 1015.63 1015.98 1016.34 1016.69 1017.02 1017.32 1017.58 1017.81 1018.01 1018.19 1018.38 1018.57 1018.78 1019.01 1019.26 1019.53 1019.81 1020.08 1020.34 1020.58 1020.80 1020.98 1021.13 1021.25 1021.33 1021.37 1021.39 1021.39 1021.38 1021.37 1021.39 1021.43 1021.51 1021.63 1021.79 1021.97 1022.18
1014.33 1014.39 1014.49 1014.64 1014.85 1015.11 1015.42 1015.76 1016.10 1016.42 1016.70 1016.95 1017.15 1017.32 1017.49 1017.65 1017.83 1018.04 1018.29 1018.56 1018.86 1019.17 1019.47 1019.77 1020.06 1020.32 1020.55 1020.76 1020.93 1021.08 1021.18 1021.24 1021.27 1021.27 1021.24 1021.21 1021.19 1021.19 1021.22 1021.30 1021.43 1021.59 1021.79
1014.28 1014.30 1014.37 1014.50 1014.70 1014.96 1015.28 1015.61 1015.92 1016.21 1016.44 1016.63 1016.76 1016.88 1016.99 1017.13 1017.30 1017.52 1017.78 1018.08 1018.40 1018.74 1019.06 1019.37 1019.67 1019.93 1020.18 1020.40 1020.60 1020.76 1020.90 1020.99 1021.04 1021.05 1021.03 1021.00 1020.96 1020.94 1020.95 1021.00 1021.09 1021.24 1021.42
1014.27 1014.26 1014.30 1014.42 1014.61 1014.88 1015.19 1015.51 1015.81 1016.06 1016.24 1016.37 1016.44 1016.49 1016.56 1016.65 1016.79 1017.00 1017.26 1017.56 1017.89 1018.22 1018.55 1018.86 1019.14 1019.41 1019.65 1019.88 1020.09 1020.29 1020.45 1020.58 1020.67 1020.73 1020.74 1020.73 1020.71 1020.69 1020.70 1020.74 1020.82 1020.95 1021.12
1014.31 1014.28 1014.30 1014.41 1014.59 1014.85 1015.16 1015.46 1015.74 1015.96 1016.11 1016.18 1016.20 1016.19 1016.20 1016.24 1016.34 1016.51 1016.75 1017.03 1017.33 1017.64 1017.95 1018.23 1018.50 1018.74 1018.98 1019.21 1019.44 1019.66 1019.86 1020.04 1020.18 1020.29 1020.35 1020.39 1020.42 1020.44 1020.48 1020.54 1020.63 1020.76 1020.92
1014.43 1014.39 1014.40 1014.49 1014.66 1014.90 1015.19 1015.48 1015.73 1015.93 1016.04 1016.07 1016.05 1016.00 1015.95 1015.94 1016.00 1016.12 1016.30 1016.53 1016.79 1017.05 1017.31 1017.56 1017.79 1018.02 1018.24 1018.47 1018.70 1018.94 1019.18 1019.40 1019.60 1019.77 1019.91 1020.02 1020.11 1020.20 1020.29 1020.40 1020.52 1020.66 1020.83
1014.65 1014.61 1014.61 1014.68 1014.82 1015.03 1015.29 1015.55 1015.79 1015.96 1016.05 1016.06 1016.01 1015.93 1015.85 1015.80 1015.80 1015.86 1015.98 1016.15 1016.34 1016.54 1016.75 1016.95 1017.14 1017.33 1017.54 1017.76 1018.00 1018.25 1018.51 1018.77 1019.01 1019.24 1019.45 1019.63 1019.81 1019.97 1020.13 1020.30 1020.48 1020.66 1020.85
1014.99 1014.96 1014.95 1014.98 1015.09 1015.26 1015.48 1015.71 1015.92 1016.08 1016.16 1016.17 1016.12 1016.03 1015.93 1015.85 1015.81 1015.81 1015.87 1015.96 1016.08 1016.21 1016.35 1016.49 1016.64 1016.81 1016.99 1017.20 1017.43 1017.69 1017.96 1018.24 1018.51 1018.79 1019.05 1019.30 1019.54 1019.78 1020.02 1020.25 1020.49 1020.72 1020.93
Thickness
5763 5764 5763 5761 5759 5757 5755 5753 5751 5750 5748 5747 5746 5744 5743 5742 5741 5740 5738 5737 5736 5735 5734 5733 5732 5731 5730 5728 5727 5725 5724 5722 5721 5719 5718 5717 5716 5715 5713 5712 5711 5709 5708
5767 5764 5762 5759 5757 5755 5753 5751 5749 5747 5746 5744 5743 5742 5741 5740 5738 5737 5736 5735 5733 5732 5731 5729 5728 5727 5725 5724 5722 5721 5719 5718 5716 5714 5713 5712 5711 5710 5709 5707 5706 5705 5704
5765 5762 5759 5757 5755 5753 5751 5749 5747 5745 5743 5742 5741 5739 5738 5737 5736 5735 5733 5732 5730 5729 5727 5725 5724 5722 5721 5719 5718 5716 5714 5713 5711 5710 5709 5708 5707 5706 5704 5703 5702 5700 5699
5762 5759 5757 5755 5753 5750 5748 5746 5744 5743 5741 5740 5738 5737 5736 5735 5734 5732 5730 5729 5727 5725 5723 5721 5719 5718 5716 5715 5713 5711 5710 5709 5707 5706 5704 5703 5702 5701 5700 5699 5697 5696 5695
5759 5756 5753 5752 5750 5748 5746 5744 5742 5741 5739 5737 5736 5735 5734 5732 5731 5730 5728 5726 5724 5721 5719 5717 5715 5714 5712 5710 5709 5707 5706 5705 5704 5702 5700 5699 5698 5697 5695 5694 5692 5691 5690
5754 5752 5750 5749 5747 5745 5743 5742 5740 5738 5736 5735 5733 5732 5731 5730 5728 5726 5724 5722 5720 5717 5715 5713 5711 5710 5708 5707 5705 5703 5702 5701 5699 5697 5696 5694 5693 5692 5690 5689 5687 5686 5685
5749 5748 5746 5745 5744 5742 5741 5739 5737 5735 5734 5732 5731 5729 5728 5727 5725 5723 5721 5718 5716 5713 5711 5709 5707 5706 5704 5703 5701 5699 5698 5696 5695 5693 5691 5690 5689 5687 5685 5684 5682 5681 5679
5746 5744 5742 5741 5740 5739 5738 5736 5734 5733 5731 5729 5728 5727 5725 5723 5721 5719 5717 5714 5712 5710 5707 5705 5704 5702 5701 5699 5697 5695 5693 5692 5690 5689 5687 5686 5684 5683 5681 5679 5677 5676 5674
5741 5739 5738 5737 5736 5735 5734 5733 5732 5730 5728 5726 5725 5723 5722 5720 5718 5715 5713 5711 5708 5706 5703 5701 5700 5698 5697 5695 5693 5691 5689 5687 5686 5684 5683 5681 5680 5678 5676 5674 5672 5671 5669
5735 5734 5734 5733 5733 5732 5731 5730 5728 5727 5725 5723 5722 5720 5718 5716 5713 5711 5709 5707 5704 5702 5700 5697 5696 5694 5693 5691 5690 5687 5685 5683 5681 5680 5678 5677 5675 5673 5671 5669 5667 5665 5664
5727 5729 5730 5729 5729 5728 5727 5726 5724 5723 5721 5720 5718 5716 5714 5711 5709 5707 5705 5703 5701 5698 5696 5694 5692 5690 5689 5687 5686 5684 5681 5679 5677 5675 5674 5672 5671 5668 5666 5664 5662 5660 5658
5720 5723 5725 5725 5725 5724 5723 5721 5720 5719 5717 5716 5714 5712 5710 5707 5705 5703 5701 5698 5696 5694 5692 5690 5688 5686 5684 5683 5682 5680 5678 5675 5673 5672 5670 5668 5666 5664 5661 5659 5657 5655 5653
5717 5719 5721 5721 5721 5720 5719 5717 5716 5715 5713 5712 5710 5708 5706 5703 5701 5699 5697 5694 5692 5690 5688 5686 5684 5682 5680 5679 5678 5676 5674 5671 5669 5668 5666 5664 5662 5660 5657 5654 5652 5650 5648
5713 5715 5718 5718 5717 5717 5716 5714 5713 5711 5709 5708 5706 5705 5702 5699 5697 5695 5693 5691 5689 5686 5684 5682 5680 5678 5676 5675 5673 5672 5670 5668 5666 5664 5662 5661 5658 5656 5653 5650 5647 5645 5642
5709 5712 5714 5715 5714 5713 5712 5711 5709 5708 5707 5705 5704 5701 5699 5696 5694 5692 5689 5687 5685 5683 5681 5678 5677 5675 5672 5671 5670 5668 5667 5665 5663 5661 5659 5656 5654 5651 5648 5645 5642 5639 5637
5706 5708 5710 5711 5711 5710 5709 5708 5707 5705 5704 5702 5701 5699 5697 5694 5692 5689 5687 5684 5682 5680 5678 5675 5673 5671 5669 5667 5666 5664 5663 5662 5660 5657 5655 5652 5650 5647 5644 5641 5638 5635 5632
5702 5705 5706 5707 5708 5707 5706 5706 5705 5703 5702 5700 5699 5697 5695 5693 5690 5687 5685 5682 5680 5677 5675 5672 5669 5667 5665 5663 5662 5660 5659 5657 5655 5653 5650 5647 5645 5642 5639 5636 5633 5630 5627
5697 5699 5702 5704 5704 5704 5703 5703 5702 5701 5700 5698 5697 5695 5693 5691 5689 5686 5683 5680 5678 5675 5672 5668 5665 5662 5660 5658 5656 5655 5653 5652 5650 5647 5645 5642 5639 5636 5633 5631 5628 5625 5621
5692 5694 5696 5698 5699 5699 5699 5699 5698 5698 5697 5696 5694 5692 5690 5688 5686 5683 5681 5679 5675 5672 5669 5666 5663 5659 5656 5653 5651 5649 5647 5646 5644 5642 5639 5636 5633 5630 5628 5625 5622 5619 5616
5686 5688 5690 5692 5693 5694 5694 5693 5693 5693 5693 5692 5690 5689 5687 5685 5683 5680 5678 5676 5672 5669 5666 5662 5659 5656 5652 5649 5646 5643 5641 5639 5637 5635 5633 5630 5627 5624 5621 5618 5615 5612 5609
5677 5680 5682 5684 5686 5687 5686 5686 5685 5686 5686 5686 5686 5685 5683 5681 5679 5677 5675 5672 5669 5666 5663 5659 5655 5651 5646 5642 5637 5634 5633 5632 5630 5628 5625 5623 5621 5618 5615 5611 5608 5605 5602
5667 5671 5674 5676 5678 5680 5681 5681 5681 5681 5681 5681 5681 5680 5679 5677 5675 5673 5671 5668 5665 5662 5659 5655 5651 5646 5642 5637 5631 5624 5622 5622 5623 5622 5619 5616 5614 5611 5608 5605 5601 5598 5595
5657 5661 5666 5667 5670 5672 5674 5674 5674 5673 5673 5673 5673 5673 5672 5671 5670 5668 5666 5664 5661 5658 5655 5652 5648 5642 5637 5632 5628 5621 5614 5616 5614 5613 5611 5609 5606 5602 5600 5597 5593 5589 5586
5648 5652 5656 5659 5661 5663 5665 5666 5666 5665 5664 5665 5665 5665 5665 5664 5663 5662 5660 5658 5656 5653 5650 5647 5644 5639 5633 5627 5621 5618 5615 5612 5605 5604 5601 5598 5595 5592 5590 5586 5583 5579 5576
5638 5642 5645 5649 5651 5653 5655 5656 5656 5656 5656 5656 5656 5657 5657 5656 5655 5654 5653 5652 5649 5647 5645 5642 5639 5634 5630 5624 5618 5612 5606 5601 5598 5593 5593 5588 5582 5580 5577 5573 5571 5568 5565
5628 5631 5635 5638 5639 5642 5644 5646 5647 5647 5647 5647 5647 5647 5647 5647 5647 5646 5645 5644 5642 5640 5638 5635 5632 5628 5624 5619 5614 5608 5601 5595 5591 5585 5583 5578 5571 5566 5561 5558 5555 5552 5550